Regional Weather Roundup
Issued by NWS

Current Version | Previous Version | Text Only | Print | Product List | Glossary On
Versions: 1 2 3 4 5 6 7 8 9 10 11 12 13 14 15 16 17 18 19 20 21 22 23 24 25 26 27 28 29 30 31 32 33 34 35 36 37 38 39 40 41 42 43 44 45 46 47 48 49 50
000
ASUS45 KTFX 210819
RWRMT
MONTANA HOURLY WEATHER ROUNDUP
NATIONAL WEATHER SERVICE GREAT FALLS MT
219 AM MDT SUN SEP 21 2014

NOTE: "FAIR" INDICATES FEW OR NO CLOUDS BELOW 12000 FEET WITH NO
SIGNIFICANT WEATHER AND/OR OBSTRUCTIONS TO VISIBILITY.

* THESE STATIONS ARE NOT UNDER NWS QUALITY CONTROL. THEY DO NOT
   REPORT WEATHER SUCH AS PRECIPITATION OR FOG.

MTZ001>007-043-210900-
WEST OF THE DIVIDE
CITY           SKY/WX    TMP DP  RH WIND       PRES   REMARKS
KALISPELL      CLEAR     46  43  89 CALM      30.17R
MISSOULA       CLEAR     50  39  66 NW3       30.18S
BUTTE          CLEAR     46  36  68 CALM      30.31S
MULLAN PASS    CLEAR     55  34  45 SE9       30.26S
* ESSEX        N/A       52  40  64 SE12G18    N/A
* LINCOLN      N/A       54  40  59 E6G11      N/A
* LOOKOUT PASS N/A       51  38  61 SE2        N/A
* POLSON       N/A       55  44  67 SE1        N/A
* RONAN APT    CLEAR     46  39  77 N/A        N/A
* SEELEY LAKE  N/A       39  32  76 N1         N/A
* THOMP F APT  CLEAR     57  39  51 N6         N/A
$$

MTZ008-052>055-210900-
SOUTHWEST MONTANA
CITY           SKY/WX    TMP DP  RH WIND       PRES   REMARKS
BOZEMAN        CLEAR     52  41  66 NW6       30.28S
DILLON         CLEAR     46  36  68 S3        30.27S
W YELLOWSTONE  CLEAR     34  32  92 CALM      30.36R
* THREE FORKS  CLEAR     43  23  45 N/A        N/A
* BOULDER HILL N/A       50  34  54 N1         N/A
* MONIDA PASS  N/A       48  36  63 SW4        N/A
* RAYNOLDS PAS N/A       46  -4  12 N/A        N/A
* WHITEHALL    N/A       48  38  68 NW4        N/A
* WISE RIVER   N/A       44  31  60 SE2        N/A
$$

MTZ009>010-012-014-046-048-049-054-210900-
EAST SLOPES AND CENTRAL MONTANA
CITY           SKY/WX    TMP DP  RH WIND       PRES   REMARKS
CUT BANK       CLEAR     45  39  80 N7        30.27S
GREAT FALLS    CLEAR     50  43  77 CALM      30.26S
HELENA         CLEAR     54  43  67 CALM      30.26R
MALMSTROM AFB  CLEAR     50  43  77 E2        30.27S
* CONRAD       CLEAR     41  39  93 N/A        N/A
* EAST GLACIER N/A       45  42  89 N9         N/A
* MONARCH      N/A       43  39  86 SE4G10     N/A
* PENDROY      N/A       49  42  77 SW4        N/A
* ROGERS PASS  N/A       47  39  74 NW2        N/A
* SAINT MARY   N/A       41  38  89 SE2        N/A
* SWEET GRASS  N/A       54  35  49 S14        N/A
* WHITE SULPH  N/A       50  41  71 NE8        N/A
$$

MTZ011-013-016-021-035-040-045-047-050-051-210900-
NORTH CENTRAL MONTANA
CITY           SKY/WX    TMP DP  RH WIND       PRES   REMARKS
HAVRE          CLEAR     45  39  80 CALM      30.26R
LEWISTOWN      CLEAR     48  41  77 E8        30.30S
* CHINOOK      CLEAR     43  39  86 CALM      30.26S
* FORT BENTON  CLEAR     52  39  61 N5        30.26S
* CHESTER      N/A       42  35  76 N2         N/A
* DENTON       N/A       44  42  93 SE8        N/A
* GEYSER       N/A       44  42  93 S9         N/A
* JUDITH GAP   N/A       47  44  89 S4G9       N/A
* LOMA         N/A       51  39  64 NE4        N/A
$$

MTZ017>020-022>027-061-062-210900-
NORTHEAST MONTANA
CITY           SKY/WX    TMP DP  RH WIND       PRES   REMARKS
GLASGOW        CLEAR     45  36  71 NE5       30.26R
JORDAN         CLEAR     39  37  93 NW7       30.28S WCI  34
SIDNEY         CLEAR     43  36  76 SW5       30.26R
WOLF POINT     CLEAR     41  36  82 CALM      30.26S
* BEAVER HILL  N/A       49  32  52 N/A        N/A
* CIRCLE       N/A       45  37  74 N/A        N/A
* LINDSAY DVD  N/A       41  34  76 NW6        N/A
$$

MTZ028>042-056>058-210900-
SOUTHCENTRAL AND SOUTHEAST MONTANA
CITY           SKY/WX    TMP DP  RH WIND       PRES   REMARKS
BAKER          CLEAR     43  34  71 CALM      30.29R
BILLINGS       CLEAR     55  41  59 N6        30.29S
LIVINGSTON     CLEAR     52  41  66 E8        30.31R
MILES CITY     CLEAR     46  37  71 NW6       30.28S
* LAUREL APT   CLEAR     54  39  57 N5         N/A
* ROUNDUP APT  CLEAR     52  39  61 N/A        N/A
* ALZADA       N/A       41  36  82 NW1        N/A
* HYSHAM       N/A       54  35  49 SE2        N/A
* LAME DEER    N/A       55  34  45 NE8        N/A
* REED POINT   N/A       45  42  89 SE1        N/A
* ROSCOE HILL  N/A       52  35  52 SW2        N/A
$$

REGIONAL REPORTS...DAKOTAS
CITY           SKY/WX    TMP DP  RH WIND       PRES   REMARKS
WILLISTON      CLEAR     48  37  66 E6        30.22R
DICKINSON      CLEAR     43  36  76 W7        30.22R
BEACH          N/A       41  34  76 W5        30.27S
CROSBY         CLEAR     48  41  77 W9        30.20R
TIOGA          CLEAR     43  43 100 W10       30.23R
WATFORD CITY   CLEAR     43  36  76 CALM      30.20S
BISMARCK       CLEAR     50  43  77 W8        30.17R
GRAND FORKS    CLEAR     52  48  86 NW6       30.03R
FARGO          CLEAR     52  46  80 NW9       30.03R
BUFFALO SD     CLEAR     45  36  71 W7        30.22R
RAPID CITY     CLEAR     50  37  61 NW9       30.31R
$$

REGIONAL REPORTS...WYOMING/IDAHO/WASHINGTON
CITY           SKY/WX    TMP DP  RH WIND       PRES   REMARKS
GILLETTE       CLEAR     43  37  79 CALM      30.35R
SHERIDAN       CLEAR     45  39  80 NW3       30.31F
CODY           CLEAR    N/A N/A N/A N/A        N/A
YELLOWSTONE LA CLEAR     36  34  92 CALM      30.44R
SALMON         PTCLDY    48  41  77 CALM      30.17R
MULLAN PASS    CLEAR     55  34  45 SE9       30.26S
SAND POINT     CLEAR     50  45  83 CALM      30.09S
SPOKANE        CLEAR     63  43  48 NE8       30.04F
$$

REGIONAL REPORTS...ALBERTA
CITY           SKY/WX    TMP DP  RH WIND       PRES   REMARKS
CALGARY        FAIR      50  41  71 SW5       30.21S
LETHBRIDGE     CLEAR     43  41  93 SW6       30.23F
MEDICINE HAT   CLEAR     45  41  86 S5        30.22F
EDMONTON       N/A       45  41  86 S6        30.10S
WATERTON GATE  N/A       43  39  86 SW6        N/A
CARDSTON       N/A       43  41  93 SE6        N/A
MILK RIVER     N/A       43  37  79 CALM       N/A
$$

REGIONAL REPORTS...SASKATCHEWAN
CITY           SKY/WX    TMP DP  RH WIND       PRES   REMARKS
SWIFT CURRENT  CLEAR     41  36  82 SW10      30.24R
REGINA         N/A       41  39  93 W6        30.19R
VAL MARIE      N/A       36  34  92 SW1        N/A
ASSINIBOIA     N/A       43  37  79 W7         N/A
CORONACH       N/A       36  32  85 N2         N/A

$$



USA.gov is the U.S. government's official web portal to all federal, state and local government web resources and services.